When you browse on this site, cookies collect data to enhance your experience and personalize the content and advertising you see.
Visit our Privacy Policy to learn more. By continuing to use the site, you agree to this use of cookies and data.
  • en France
  • Liste des pays
  • À 7 jours
  • Température de l'eau
  • Carte météo
  • Widgets météo
  • user-avatar
    Se connecter

    Météo par heure à Kadz

    Ce jour, 26 Janvier, Dimanche

    Heure Température Précipitation Vent Pression Humidité
    00:00 -1°C° 0 mm 2 m/s 751 mmHg 75%
    01:00 -1°C° 0 mm 2 m/s 751 mmHg 74%
    02:00 -1°C° 0 mm 2 m/s 751 mmHg 74%
    03:00 -1°C° 0 mm 2 m/s 751 mmHg 74%
    04:00 -1°C° 0 mm 2 m/s 751 mmHg 74%
    05:00 +1°C° 0 mm 1 m/s 750 mmHg 73%
    06:00 +1°C° 0 mm 1 m/s 750 mmHg 72%
    07:00 +1°C° 0 mm 1 m/s 750 mmHg 71%
    08:00 -1°C° 0 mm 2 m/s 750 mmHg 67%
    09:00 +1°C° 0 mm 2 m/s 751 mmHg 64%
    10:00 +2°C° 0 mm 2 m/s 751 mmHg 61%
    11:00 +2°C° 0 mm 2 m/s 750 mmHg 60%
    12:00 +3°C° 0 mm 2 m/s 750 mmHg 59%
    13:00 +3°C° 0 mm 2 m/s 749 mmHg 58%
    14:00 +2°C° 0 mm 2 m/s 749 mmHg 61%
    15:00 +2°C° 0 mm 2 m/s 749 mmHg 64%
    16:00 +1°C° 0 mm 2 m/s 749 mmHg 67%
    17:00 +1°C° 0 mm 2 m/s 749 mmHg 68%
    18:00 +1°C° 0 mm 2 m/s 748 mmHg 70%
    19:00 +1°C° 0 mm 2 m/s 748 mmHg 71%
    20:00 -1°C° 0 mm 2 m/s 748 mmHg 72%
    21:00 -1°C° 0 mm 2 m/s 748 mmHg 73%
    22:00 -1°C° 0 mm 2 m/s 748 mmHg 74%
    23:00 -1°C° 0 mm 2 m/s 748 mmHg 75%

    Demain, 27 Janvier, Lundi

    Heure Température Précipitation Vent Pression Humidité
    00:00 -1°C° 0 mm 2 m/s 748 mmHg 76%
    01:00 -1°C° 0 mm 2 m/s 748 mmHg 77%
    02:00 -1°C° 0 mm 2 m/s 747 mmHg 78%
    03:00 -1°C° 0 mm 2 m/s 747 mmHg 79%
    04:00 -1°C° 0 mm 2 m/s 747 mmHg 80%
    05:00 -1°C° 0 mm 2 m/s 747 mmHg 80%
    06:00 -1°C° 0 mm 2 m/s 747 mmHg 81%
    07:00 -1°C° 0 mm 2 m/s 747 mmHg 81%
    08:00 +1°C° 0 mm 2 m/s 747 mmHg 78%
    09:00 +1°C° 0 mm 3 m/s 747 mmHg 75%
    10:00 +1°C° 0 mm 3 m/s 747 mmHg 71%
    11:00 +2°C° 0 mm 3 m/s 746 mmHg 69%
    12:00 +3°C° 0 mm 3 m/s 746 mmHg 67%
    13:00 +3°C° 0 mm 3 m/s 746 mmHg 65%
    14:00 +4°C° 0 mm 2 m/s 746 mmHg 70%
    15:00 +3°C° 0 mm 2 m/s 745 mmHg 74%
    16:00 +2°C° 0 mm 2 m/s 745 mmHg 78%
    17:00 +2°C° 0 mm 2 m/s 745 mmHg 80%
    18:00 +1°C° 0 mm 2 m/s 745 mmHg 83%
    19:00 0°C° 0 mm 3 m/s 744 mmHg 85%
    20:00 0°C° 0 mm 3 m/s 744 mmHg 86%
    21:00 0°C° 0 mm 3 m/s 744 mmHg 88%
    22:00 0°C° 0 mm 3 m/s 744 mmHg 89%
    23:00 0°C° 0 mm 3 m/s 743 mmHg 89%

    Après-demain, 28 Janvier, Mardi

    Heure Température Précipitation Vent Pression Humidité
    00:00 0°C° 0 mm 3 m/s 743 mmHg 90%
    01:00 0°C° 0 mm 3 m/s 742 mmHg 90%
    02:00 0°C° 0 mm 3 m/s 742 mmHg 90%
    03:00 0°C° 0 mm 3 m/s 741 mmHg 90%
    04:00 0°C° 0 mm 3 m/s 740 mmHg 90%
    05:00 0°C° 0 mm 3 m/s 740 mmHg 88%
    06:00 0°C° 0 mm 3 m/s 739 mmHg 86%
    07:00 -1°C° 0 mm 4 m/s 739 mmHg 85%
    08:00 0°C° 0 mm 4 m/s 738 mmHg 81%
    09:00 +1°C° 0 mm 4 m/s 738 mmHg 77%
    10:00 +3°C° 0 mm 4 m/s 737 mmHg 73%
    11:00 +3°C° 0 mm 3 m/s 737 mmHg 72%
    12:00 +3°C° 0 mm 3 m/s 736 mmHg 71%
    13:00 +4°C° 0 mm 3 m/s 735 mmHg 70%
    14:00 +3°C° 0.1 mm 3 m/s 735 mmHg 75%
    15:00 +3°C° 0.1 mm 3 m/s 734 mmHg 79%
    16:00 +3°C° 0.1 mm 3 m/s 734 mmHg 84%
    17:00 +2°C° 0.4 mm 3 m/s 734 mmHg 88%
    18:00 +2°C° 0.4 mm 3 m/s 733 mmHg 91%
    19:00 +3°C° 0.4 mm 2 m/s 733 mmHg 95%
    20:00 +2°C° 0.2 mm 3 m/s 733 mmHg 95%
    21:00 +2°C° 0.2 mm 3 m/s 733 mmHg 96%
    22:00 +2°C° 0.2 mm 3 m/s 733 mmHg 96%
    23:00 +1°C° 0.2 mm 4 m/s 732 mmHg 96%

    29 Janvier, Mercredi

    Heure Température Précipitation Vent Pression Humidité
    00:00 +1°C° 0.2 mm 4 m/s 732 mmHg 95%
    01:00 +1°C° 0.2 mm 4 m/s 732 mmHg 95%
    02:00 +1°C° 0.3 mm 5 m/s 732 mmHg 94%
    03:00 0°C° 0.3 mm 5 m/s 732 mmHg 93%
    04:00 -1°C° 0.3 mm 6 m/s 732 mmHg 92%
    05:00 0°C° 0 mm 5 m/s 732 mmHg 86%
    06:00 0°C° 0 mm 5 m/s 732 mmHg 79%
    07:00 0°C° 0 mm 5 m/s 732 mmHg 73%
    08:00 0°C° 0 mm 5 m/s 733 mmHg 71%
    09:00 -1°C° 0 mm 6 m/s 733 mmHg 70%
    10:00 -1°C° 0 mm 6 m/s 733 mmHg 69%
    11:00 -1°C° 0 mm 6 m/s 733 mmHg 68%
    12:00 0°C° 0 mm 7 m/s 733 mmHg 68%
    13:00 0°C° 0 mm 7 m/s 733 mmHg 67%
    14:00 +1°C° 0 mm 6 m/s 734 mmHg 68%
    15:00 +1°C° 0 mm 6 m/s 734 mmHg 69%
    16:00 +1°C° 0 mm 5 m/s 734 mmHg 70%
    17:00 0°C° 0 mm 5 m/s 735 mmHg 74%
    18:00 -1°C° 0 mm 6 m/s 735 mmHg 78%
    19:00 -1°C° 0 mm 6 m/s 735 mmHg 83%
    20:00 -2°C° 0.2 mm 6 m/s 735 mmHg 87%
    21:00 -2°C° 0.2 mm 6 m/s 735 mmHg 91%
    22:00 -2°C° 0.2 mm 6 m/s 735 mmHg 96%
    23:00 -2°C° 0.8 mm 6 m/s 735 mmHg 94%

    30 Janvier, Jeudi

    Heure Température Précipitation Vent Pression Humidité
    00:00 -1°C° 0.8 mm 7 m/s 736 mmHg 93%
    01:00 -1°C° 0.8 mm 7 m/s 736 mmHg 91%
    02:00 -1°C° 0.1 mm 7 m/s 736 mmHg 91%
    03:00 -1°C° 0.1 mm 8 m/s 737 mmHg 92%
    04:00 -1°C° 0.1 mm 8 m/s 737 mmHg 92%
    05:00 -1°C° 0 mm 8 m/s 738 mmHg 92%
    06:00 -1°C° 0 mm 8 m/s 738 mmHg 92%
    07:00 -1°C° 0 mm 8 m/s 739 mmHg 91%
    08:00 -1°C° 0 mm 8 m/s 739 mmHg 89%
    09:00 -1°C° 0 mm 8 m/s 740 mmHg 86%
    10:00 -1°C° 0 mm 8 m/s 740 mmHg 84%
    11:00 -1°C° 0 mm 8 m/s 740 mmHg 83%
    12:00 -1°C° 0 mm 8 m/s 741 mmHg 81%
    13:00 0°C° 0 mm 8 m/s 741 mmHg 80%
    14:00 0°C° 0.1 mm 7 m/s 741 mmHg 82%
    15:00 0°C° 0.1 mm 7 m/s 742 mmHg 83%
    16:00 -1°C° 0.1 mm 7 m/s 742 mmHg 85%
    17:00 -1°C° 0 mm 7 m/s 742 mmHg 84%
    18:00 -1°C° 0 mm 6 m/s 743 mmHg 84%
    19:00 -1°C° 0 mm 6 m/s 743 mmHg 83%
    20:00 -1°C° 0 mm 6 m/s 744 mmHg 83%
    21:00 -1°C° 0 mm 6 m/s 744 mmHg 82%
    22:00 0°C° 0 mm 5 m/s 744 mmHg 82%
    23:00 -1°C° 0 mm 6 m/s 744 mmHg 84%

    31 Janvier, Vendredi

    Heure Température Précipitation Vent Pression Humidité
    00:00 -1°C° 0 mm 6 m/s 745 mmHg 86%
    01:00 +1°C° 0 mm 6 m/s 745 mmHg 89%
    02:00 -1°C° 0 mm 6 m/s 745 mmHg 90%
    03:00 -1°C° 0 mm 6 m/s 745 mmHg 91%
    04:00 0°C° 0 mm 5 m/s 745 mmHg 92%
    05:00 0°C° 0.2 mm 5 m/s 745 mmHg 92%
    06:00 0°C° 0.2 mm 5 m/s 745 mmHg 93%
    07:00 0°C° 0.2 mm 5 m/s 746 mmHg 94%
    08:00 0°C° 0 mm 5 m/s 746 mmHg 90%
    09:00 0°C° 0 mm 5 m/s 746 mmHg 87%
    10:00 0°C° 0 mm 5 m/s 746 mmHg 83%
    11:00 +1°C° 0 mm 5 m/s 746 mmHg 78%
    12:00 +2°C° 0 mm 5 m/s 746 mmHg 74%
    13:00 +2°C° 0 mm 5 m/s 746 mmHg 69%
    14:00 +3°C° 0 mm 4 m/s 746 mmHg 69%
    15:00 +3°C° 0 mm 3 m/s 746 mmHg 69%
    16:00 +3°C° 0 mm 2 m/s 746 mmHg 70%
    17:00 +3°C° 0 mm 2 m/s 746 mmHg 71%
    18:00 +3°C° 0 mm 2 m/s 746 mmHg 73%
    19:00 +2°C° 0 mm 2 m/s 746 mmHg 74%
    20:00 +2°C° 0 mm 2 m/s 746 mmHg 76%
    21:00 +1°C° 0 mm 2 m/s 746 mmHg 77%
    22:00 +1°C° 0 mm 2 m/s 746 mmHg 78%
    23:00 +1°C° 0 mm 2 m/s 746 mmHg 77%
    Voir plus